Tracking 19796 objects as of 19-Jul-2019
HD Live streaming from Space Station
objects crossing your sky now

ARIANE 2 DEB

Track ARIANE 2 DEB now!


NORAD ID: 26717
Int'l Code: 1989-006C
Perigee: 591.5 km
Apogee: 35,691.4 km
Inclination: 8.6 °
Period: 636.6 minutes
Semi major axis: 24512 km
RCS: 4.1288 m2 (large)
Launch date: January 27, 1989
Source: France (FR)
Launch site: FRENCH GUIANA (FRGUI)

Note: This is SATELLITE DEBRIS
aabbcc
Your satellite tracking list
Your tracking list is empty




NASA's NSSDC Master Catalog

Two Line Element Set (TLE):
1 26717U 89006C   19199.95466743 -.00000077 +00000-0 +34509-3 0  9998
2 26717 008.5608 025.6140 7159611 217.5714 353.3637 02.26215455153288
Source of the keplerian elements: AFSPC